Flag for U.S.A. Weather past 2 weeks in Birmingham, Alabama, U.S.A.

Now
76 °F

Clear.


Feels Like: 78 °F
Forecast: 70 / 88 °F
Wind: 5 mph from Northeast

Location: Birmingham International Airport

Current Time: Aug 28, 2015 at 12:44:45 AM

Latest Report: Aug 27, 2015 at 11:53 PM


Visibility: 10 mi

Pressure: 30.01 "Hg

Humidity: 69%

Dew point: 65 °F

Location of BirminghamLocation

Historic Weather in Birmingham — Graph

°F

Birmingham temperature yesterday

Maximum temperature yesterday: 86 °F (at 3:53 PM)
Minimum temperature yesterday: 61 °F (at 4:53 AM)
Average temperature yesterday: 74 °F

Past Weeks' High & Low Weather Summary

 TemperatureHumidityPressure
High90 °F (Aug 13, 3:53 PM)100% (Aug 17, 9:01 AM)30.14 "Hg (Aug 17, 9:01 AM)
Low58 °F (Aug 26, 6:53 AM)37% (Aug 13, 3:53 PM)29.90 "Hg (Aug 18, 5:53 PM)
Average77 °F77%30.03 "Hg
* Reported Aug 12 10:53 PM — Aug 27 10:53 PM, Birmingham, Weather by CustomWeather, © 2015

Note: Actual official high and low records may vary slightly from our data, if they occured in-between our weather recording intervals... More about our weather records

Advertising

Birmingham weather history for previous 24 hours

 ConditionsComfort  
Time TempWeatherWind HumidityBarometerVisibility
10:53 PM
Thu, Aug 27
74 °FClear.5 mph76%30.03 "Hg10 mi
9:53 PM76 °FPassing clouds.No wind72%30.03 "Hg10 mi
8:53 PM78 °FPartly cloudy.6 mph66%30.03 "Hg10 mi
7:53 PM78 °FPassing clouds.3 mph66%30.01 "Hg10 mi
6:53 PM82 °FPassing clouds.6 mph58%30.00 "Hg10 mi
5:53 PM86 °FBroken clouds.7 mph46%30.00 "Hg10 mi
4:53 PM86 °FPassing clouds.3 mph45%29.98 "Hg10 mi
3:53 PM86 °FScattered clouds.3 mph46%29.99 "Hg10 mi
2:53 PM85 °FScattered clouds.10 mph45%29.99 "Hg10 mi
1:53 PM85 °FScattered clouds.7 mph50%30.01 "Hg10 mi
12:53 PM83 °FScattered clouds.No wind53%30.03 "Hg10 mi
11:53 AM82 °FPassing clouds.5 mph55%30.04 "Hg10 mi
10:53 AM78 °FSunny.3 mph60%30.04 "Hg10 mi
9:53 AM76 °FPassing clouds.3 mph60%30.05 "Hg10 mi
8:53 AM71 °FPassing clouds.5 mph71%30.05 "Hg10 mi
7:53 AM66 °FPassing clouds.3 mph78%30.05 "Hg10 mi
6:53 AM61 °FPassing clouds.No wind97%30.04 "Hg10 mi
5:53 AM61 °FClear.No wind93%30.03 "Hg10 mi
4:53 AM61 °FClear.No wind97%30.02 "Hg10 mi
3:53 AM62 °FClear.No wind93%30.01 "Hg10 mi
2:53 AM63 °FClear.No wind90%30.01 "Hg10 mi
1:53 AM64 °FClear.No wind87%30.01 "Hg10 mi
12:53 AM65 °FClear.No wind87%30.03 "Hg10 mi
Weather by CustomWeather, © 2015

See weather overviewHow to use our weather pages